Location: Alfortville
(48.8058°N, 2.4204°E)
Time: 05:16:55
(UTC+00:00)

USA 229 DEB - Pass Details

Date: 31 May 2022
Orbit: 934 x 1278 km, 63.4° (Epoch: 24 May)

Event Time Altitude Azimuth Distance (km) Brightness Sun altitude
Rises 22:22:12 0° 317° (NW) 3,932 8.0 -16.6°
Reaches altitude 10° 22:24:48 10° 319° (NW) 3,019 7.2 -16.8°
Maximum altitude 22:32:06 77° 46° (NE) 1,231 4.0 -17.2°
Enters shadow 22:38:02 19° 131° (SE) 2,587 5.2 -17.5°
